Location: Aetna Mine
(37.6183°N, 107.6045°W)
Time: 10:40:20
(UTC+00:00)

Cosmos 858 Rocket - Pass Details

Date: 18 September 2020
Orbit: 756 x 774 km, 74.1° (Epoch: 20 October)

Event Time Altitude Azimuth Distance (km) Brightness Sun altitude
Rises 12:21:40 0° 340° (NNW) 3,219 7.6 -7.5°
Reaches altitude 10° 12:24:02 10° 340° (NNW) 2,290 6.8 -7.0°
Maximum altitude 12:29:14 83° 254° (WSW) 768 4.5 -6.0°
Drops below altitude 10° 12:34:24 10° 167° (SSE) 2,280 7.1 -5.0°
Sets 12:36:45 0° 166° (SSE) 3,203 7.8 -4.5°
